map of CGQ home
Great Circle Mapper logo
CGQ - Airport
Location
City:  Changchun, Jilin, China
Name:Longjia International Airport
ICAO / IATA:ZYCC / CGQ

Details
Type:Airport (Aerodrome, Airfield)
Use:Public/Civil, International (customs port of entry)
Latitude:4359'46"N (43.996214)
Longitude:12541'07"E (125.685356)
Datum:WGS 1984
Elevation:706 ft (215 m)
Variation:9.8W (WMM2010 magnetic declination)
Runways:1
Longest:10500 × 148 ft (3200 × 45 m), paved

Time
Time Zone:UTC+8
Local Time:

Weather
METAR:ZYCC 242200Z VRB01MPS 5000 BR NSC M12/M14 Q1024 NOSIG
TAF:ZYCC 241911Z 2500/2524 06003MPS 3000 BR FEW023 TX03/2506Z TNM13/21Z

Related Locations
Nearby:
Farthest:MJR: 11993 mi / 19300 km
Miramar, BA, AR

Find:

   beyond  
but within

Other Information
Maps:
NOTAMs:
Links:
Sources:

  
flag of China   

Sectional Chart

Flight Planning
at skyvector.com

Satellite Image

Google Maps Satellite View

 

Copyright © 2004-2014 Karl L. Swartz. All rights reserved.
The Great Circle Mapper name and logo are trademarks of the Great Circle Mapper.
All other trademarks mentioned herein belong to their respective owners.
Please see credits for attibutions and further copyright information.

  Follow gcmap on Facebook Follow gcmap on Twitter

hCard Microformat

Geo Microformat